Location: Alafon
(8.4500°N, 4.2333°E)
Time: 18:34:31
(UTC+00:00)

deb Explorer IX - Pass Details

Date: 26 July 2021
Orbit: 545 x 1091 km, 38.8° (Epoch: 20 September)

Event Time Altitude Azimuth Distance (km) Brightness Sun altitude
Rises 23:22:43 0° 293° (WNW) 3,877 - -61.6°
Reaches altitude 10° 23:25:50 10° 284° (WNW) 2,894 - -61.7°
Maximum altitude 23:32:00 32° 224° (SW) 1,656 - -62.0°
Drops below altitude 10° 23:37:42 10° 162° (SSE) 2,649 - -62.2°
Sets 23:40:26 0° 152° (SSE) 3,506 - -62.2°
